STARLINK-38165, 100191

Orbit data source: Space-Track

STARLINK-38165, 100191 is a payload satellite owned by SpaceX/Seattle (US) in SSO that was launched on Sat, 01 Aug 2026 UTC launched from the Air Force Western Test Range (AFWTR). Payload-class satellites include a variety of spacecraft equipped with specific instruments for various scientific and technological missions. These include communications satellites like Starlink; space stations such as the ISS; scientific satellites like the Hubble; Earth observation satellites from companies like Planet Labs, Umbra, and HawkEye 360; GPS; miniature CubeSats for education and research; and military/defense satellites.

Loading next visibility...
Identifier
100191, 2026-175N
Orbit
SSO
Country
Flag of USUS
Related business
Manufacturer
SpaceX/Seattle
Mission
Operational spacecraft
Bus & Motor
STARLINK V2MO, Unknown motor
Mass
575 kg wet, ~530 kg dry
Launch date (UTC)
2026-08-01 (2 months ago)
Launch vehicle
Unknown
Launch site
Air Force Western Test Range (AFWTR)
Object type
Payload
Rocket body
Debris
Shape & HBR
BOX + PAN, 17.7 m
Radar Cross Section
Large (>1 m²)

Expand to show TLE details & history
Last TLE update: 11 hours ago

TLE from 11 hours ago
0 STARLINK-38165
1 A0191U 26175N   26263.73622448 -.00208609  00000-0 -25300-2 0  9996
2 A0191  97.2844 106.1876 0002841  29.5161 330.6257 15.61233671  9218
Epoch: 2026-09-20T17:40Z
TLE epoch observation values (Epoch: 2026-09-20T17:40:09.795Z)
Latitude
0.00004°
Longitude
-158.47934°
Altitude
385.568 km
Speed
7.68 km/s
True Right ascension
07h 04m 45s
True Declination
0° 00' 00"
Sunlit
Object was in daylight at epoch
Visualization orbit readout
Latitude
Unknown
Longitude
Unknown
Altitude
Unknown
Speed
Unknown
Apparent Right ascension
Unknown
Apparent Declination
Unknown
Sunlit
N/A
Visualization observer readout
Local Sidereal Time
22:06:00
Azimuth
Unknown
Elevation
Unknown
Doppler factor
Unknown
Orbital elements
Apogee altitude
382.919 km
Perigee altitude
379.078 km
Semi-major axis
6,759.135 km
Eccentricity
0.00028
Inclination
97.2844°
RAAN
106.1876°
Arg. of periapsis
29.5161°
True anomaly
330.60973°
Mean anomaly
330.6257°
Eccentric anomaly
330.61771°
Mean motion
3.90577 °/min
Orbital period
92.17 mins
BSTAR
-0.00253
Loading maneuver chart data...
Computing Atmospheric mass density...
Loading historical data...
Loading historical data...
Loading historical data...
Loading historical data...
Loading historical data...
Loading historical data...
Loading historical data...

Documentation

Showing up to 5 results
|